RYR391 EPWR-LIBR

Flight info

Callsign RYR391
Flight time 1h 42m
Altitude 37000
Route PEKO2A PEKOT DCT DESEN DCT UPLAV DCT MAVOR DCT VEBAL DCT AIOSA L862 ENOXA ENOX2Y
Aircraft B738/M-SDE2E3FGHIRWXY/LB1

Departure

Time 2026-04-21 18:01
Airport Copernicus Wrocław Airport (EPWR)

Arrival

Time 2026-04-21 19:43
Airport Brindisi Airport (LIBR)
Time Latitude Longitude Altitude Speed Heading
2026-04-21 17:40 51.10901 16.87884 402 ft 0 kts 25°
2026-04-21 17:54 51.10889 16.87875 402 ft 3 kts 26°
2026-04-21 17:54 51.10873 16.87862 402 ft 2 kts 26°
2026-04-21 17:54 51.10856 16.87851 399 ft 3 kts
2026-04-21 17:54 51.10840 16.87852 402 ft 3 kts 330°
2026-04-21 17:55 51.10826 16.87872 402 ft 3 kts 298°
2026-04-21 17:55 51.10819 16.87895 399 ft 1 kts 296°
2026-04-21 17:55 51.10817 16.87902 400 ft 0 kts 296°
2026-04-21 17:57 51.10817 16.87901 400 ft 1 kts 296°
2026-04-21 17:57 51.10834 16.87847 401 ft 9 kts 296°
2026-04-21 17:58 51.10873 16.87720 402 ft 16 kts 296°
2026-04-21 17:58 51.10922 16.87562 402 ft 13 kts 296°
2026-04-21 17:58 51.10945 16.87486 401 ft 9 kts 296°
2026-04-21 17:58 51.10938 16.87408 398 ft 8 kts 213°
2026-04-21 17:59 51.10886 16.87366 400 ft 9 kts 206°
2026-04-21 17:59 51.10826 16.87319 401 ft 8 kts 206°
2026-04-21 17:59 51.10782 16.87285 402 ft 4 kts 206°
2026-04-21 17:59 51.10756 16.87264 401 ft 4 kts 206°
2026-04-21 18:00 51.10724 16.87234 403 ft 6 kts 225°
2026-04-21 18:00 51.10697 16.87201 401 ft 3 kts 179°
2026-04-21 18:00 51.10683 16.87230 402 ft 4 kts 114°
2026-04-21 18:00 51.10659 16.87314 399 ft 22 kts 116°
2026-04-21 18:01 51.10459 16.87959 400 ft 107 kts 116°
2026-04-21 18:01 51.10020 16.89373 484 ft 168 kts 116°
2026-04-21 18:01 51.09494 16.91048 1310 ft 173 kts 113°
2026-04-21 18:01 51.08962 16.92808 2244 ft 179 kts 111°
2026-04-21 18:02 51.08415 16.94637 3072 ft 185 kts 111°
2026-04-21 18:02 51.07600 16.96269 3907 ft 200 kts 140°
2026-04-21 18:02 51.06259 16.97262 4347 ft 223 kts 162°
2026-04-21 18:02 51.04690 16.97459 4892 ft 233 kts 194°
2026-04-21 18:03 51.03209 16.96425 5521 ft 237 kts 207°
2026-04-21 18:03 51.01690 16.95235 6038 ft 248 kts 207°
2026-04-21 18:03 51.00124 16.94017 6733 ft 253 kts 207°
2026-04-21 18:03 50.98534 16.92778 7614 ft 254 kts 206°
2026-04-21 18:04 50.96961 16.91560 8490 ft 256 kts 206°
2026-04-21 18:04 50.95324 16.90382 9302 ft 263 kts 195°
2026-04-21 18:04 50.93455 16.90325 9611 ft 282 kts 159°
2026-04-21 18:04 50.91724 16.91825 10279 ft 287 kts 143°
2026-04-21 18:05 50.90020 16.93648 10689 ft 308 kts 143°
2026-04-21 18:05 50.88157 16.95551 11072 ft 326 kts 144°
2026-04-21 18:05 50.86214 16.97483 11825 ft 332 kts 145°
2026-04-21 18:05 50.84250 16.99425 12732 ft 334 kts 144°
2026-04-21 18:06 50.82246 17.01409 13642 ft 337 kts 144°
2026-04-21 18:06 50.80277 17.03362 14473 ft 341 kts 144°
2026-04-21 18:06 50.78261 17.05365 15314 ft 344 kts 144°
2026-04-21 18:06 50.76230 17.07383 16166 ft 347 kts 144°
2026-04-21 18:07 50.74180 17.09421 17019 ft 350 kts 144°
2026-04-21 18:07 50.72108 17.11481 17841 ft 354 kts 144°
2026-04-21 18:07 50.70014 17.13560 18652 ft 358 kts 143°
2026-04-21 18:07 50.67884 17.15674 19275 ft 364 kts 143°
2026-04-21 18:08 50.65740 17.17798 20053 ft 365 kts 143°
2026-04-21 18:08 50.63584 17.19931 20787 ft 368 kts 143°
2026-04-21 18:08 50.61406 17.22084 21471 ft 372 kts 143°
2026-04-21 18:08 50.59199 17.24265 22136 ft 376 kts 143°
2026-04-21 18:09 50.56974 17.26461 22806 ft 380 kts 143°
2026-04-21 18:09 50.54725 17.28677 23464 ft 383 kts 143°
2026-04-21 18:09 50.52456 17.30910 24053 ft 387 kts 143°
2026-04-21 18:09 50.50164 17.33164 24599 ft 390 kts 143°
2026-04-21 18:10 50.47861 17.35425 25174 ft 392 kts 143°
2026-04-21 18:10 50.45539 17.37703 25698 ft 395 kts 143°
2026-04-21 18:10 50.43200 17.39996 26165 ft 399 kts 144°
2026-04-21 18:10 50.40833 17.42313 26645 ft 403 kts 144°
2026-04-21 18:11 50.38364 17.44454 27133 ft 410 kts 153°
2026-04-21 18:11 50.35624 17.45819 27632 ft 418 kts 164°
2026-04-21 18:11 50.32715 17.46414 28106 ft 426 kts 173°
2026-04-21 18:11 50.29742 17.46579 28571 ft 430 kts 174°
2026-04-21 18:12 50.26742 17.46692 29005 ft 433 kts 175°
2026-04-21 18:12 50.23715 17.46797 29462 ft 436 kts 175°
2026-04-21 18:12 50.20674 17.46911 29933 ft 438 kts 175°
2026-04-21 18:12 50.17618 17.47040 30320 ft 441 kts 175°
2026-04-21 18:13 50.14540 17.47181 30624 ft 444 kts 175°
2026-04-21 18:13 50.11442 17.47333 30910 ft 447 kts 175°
2026-04-21 18:13 50.08317 17.47490 31204 ft 451 kts 175°
2026-04-21 18:13 50.05178 17.47651 31542 ft 452 kts 175°
2026-04-21 18:14 49.98911 17.47972 32392 ft 451 kts 177°
2026-04-21 18:14 49.95769 17.48133 32728 ft 453 kts 177°
2026-04-21 18:14 49.92611 17.48294 33059 ft 454 kts 177°
2026-04-21 18:15 49.89497 17.48453 33458 ft 454 kts 177°
2026-04-21 18:15 49.86337 17.48613 33846 ft 454 kts 178°
2026-04-21 18:15 49.83180 17.48773 34201 ft 455 kts 178°
2026-04-21 18:15 49.80007 17.48934 34438 ft 457 kts 178°
2026-04-21 18:16 49.76837 17.49095 34797 ft 456 kts 178°
2026-04-21 18:16 49.73662 17.49256 35060 ft 457 kts 178°
2026-04-21 18:16 49.70481 17.49416 35378 ft 456 kts 178°
2026-04-21 18:16 49.67310 17.49576 35704 ft 456 kts 178°
2026-04-21 18:17 49.64139 17.49736 35998 ft 456 kts 178°
2026-04-21 18:17 49.60969 17.49896 36266 ft 457 kts 178°
2026-04-21 18:17 49.57784 17.50056 36503 ft 458 kts 178°
2026-04-21 18:17 49.54600 17.50216 36778 ft 458 kts 178°
2026-04-21 18:18 49.51413 17.50376 37084 ft 457 kts 179°
2026-04-21 18:18 49.45005 17.50696 37174 ft 463 kts 179°
2026-04-21 18:19 49.38585 17.51016 37157 ft 458 kts 179°
2026-04-21 18:19 49.32254 17.51332 37170 ft 455 kts 179°
2026-04-21 18:20 49.25926 17.51646 37163 ft 455 kts 179°
2026-04-21 18:20 49.19591 17.51959 37160 ft 456 kts 179°
2026-04-21 18:21 49.13246 17.52273 37160 ft 457 kts 179°
2026-04-21 18:21 49.06887 17.52586 37156 ft 457 kts 179°
2026-04-21 18:22 49.00519 17.52899 37157 ft 458 kts 179°
2026-04-21 18:22 48.94157 17.53211 37150 ft 459 kts 179°
2026-04-21 18:23 48.87777 17.53523 37154 ft 459 kts 179°
2026-04-21 18:23 48.81384 17.53804 37141 ft 459 kts 182°
2026-04-21 18:24 48.75054 17.53380 37151 ft 458 kts 186°
2026-04-21 18:24 48.68693 17.52697 37147 ft 458 kts 186°
2026-04-21 18:25 48.62330 17.52049 37132 ft 458 kts 185°
2026-04-21 18:25 48.55968 17.51459 37140 ft 458 kts 185°
2026-04-21 18:26 48.49614 17.50894 37139 ft 457 kts 185°
2026-04-21 18:26 48.43261 17.50334 37141 ft 457 kts 185°
2026-04-21 18:27 48.36916 17.49775 37126 ft 457 kts 186°
2026-04-21 18:27 48.30576 17.49216 37134 ft 456 kts 186°
2026-04-21 18:28 48.24244 17.48659 37128 ft 456 kts 186°
2026-04-21 18:28 48.17912 17.48103 37123 ft 456 kts 186°
2026-04-21 18:29 48.11583 17.47549 37130 ft 455 kts 186°
2026-04-21 18:29 48.05255 17.46996 37123 ft 456 kts 186°
2026-04-21 18:30 47.98938 17.46446 37119 ft 456 kts 186°
2026-04-21 18:30 47.92602 17.45895 37124 ft 456 kts 186°
2026-04-21 18:31 47.86268 17.45346 37127 ft 456 kts 186°
2026-04-21 18:31 47.79928 17.44798 37123 ft 457 kts 186°
2026-04-21 18:32 47.73629 17.44254 37102 ft 457 kts 186°
2026-04-21 18:32 47.67283 17.43709 37112 ft 457 kts 186°
2026-04-21 18:33 47.60933 17.43163 37122 ft 457 kts 186°
2026-04-21 18:33 47.54577 17.42619 37111 ft 457 kts 186°
2026-04-21 18:34 47.48223 17.42076 37106 ft 458 kts 186°
2026-04-21 18:34 47.41867 17.41534 37103 ft 458 kts 186°
2026-04-21 18:35 47.36581 17.41085 37101 ft 457 kts 186°
2026-04-21 18:35 47.29155 17.40455 37096 ft 457 kts 186°
2026-04-21 18:36 47.22805 17.39918 37107 ft 457 kts 186°
2026-04-21 18:36 47.16456 17.39382 37110 ft 457 kts 186°
2026-04-21 18:37 47.10311 17.38865 37097 ft 457 kts 186°
2026-04-21 18:37 47.03971 17.38332 37114 ft 456 kts 187°
2026-04-21 18:38 46.97648 17.37802 37117 ft 456 kts 187°
2026-04-21 18:38 46.91318 17.37273 37118 ft 456 kts 187°
2026-04-21 18:39 46.84992 17.36746 37115 ft 455 kts 187°
2026-04-21 18:39 46.79741 17.36309 37131 ft 454 kts 187°
2026-04-21 18:40 46.72986 17.35747 37129 ft 454 kts 187°
2026-04-21 18:40 46.67701 17.35309 37101 ft 454 kts 187°
2026-04-21 18:41 46.60375 17.34704 37123 ft 454 kts 187°
2026-04-21 18:41 46.54070 17.34184 37127 ft 454 kts 187°
2026-04-21 18:42 46.47761 17.33664 37129 ft 454 kts 187°
2026-04-21 18:42 46.41442 17.33146 37118 ft 455 kts 188°
2026-04-21 18:43 46.35128 17.32629 37111 ft 455 kts 188°
2026-04-21 18:43 46.28808 17.32112 37109 ft 455 kts 188°
2026-04-21 18:44 46.22488 17.31597 37104 ft 455 kts 188°
2026-04-21 18:44 46.16171 17.31083 37107 ft 455 kts 188°
2026-04-21 18:45 46.10101 17.30591 37106 ft 455 kts 188°
2026-04-21 18:45 46.03780 17.30079 37099 ft 455 kts 188°
2026-04-21 18:46 45.97479 17.29591 37104 ft 455 kts 187°
2026-04-21 18:46 45.92204 17.29462 37107 ft 456 kts 185°
2026-04-21 18:47 45.85850 17.29457 37099 ft 457 kts 185°
2026-04-21 18:47 45.79503 17.29433 37097 ft 456 kts 186°
2026-04-21 18:48 45.73158 17.29370 37104 ft 456 kts 186°
2026-04-21 18:48 45.66819 17.29291 37102 ft 456 kts 186°
2026-04-21 18:49 45.60480 17.29208 37094 ft 455 kts 186°
2026-04-21 18:49 45.55214 17.29139 37089 ft 456 kts 186°
2026-04-21 18:50 45.47802 17.29044 37098 ft 456 kts 186°
2026-04-21 18:50 45.41459 17.28963 37099 ft 456 kts 186°
2026-04-21 18:51 45.35111 17.28883 37098 ft 456 kts 186°
2026-04-21 18:51 45.28764 17.28803 37087 ft 456 kts 186°
2026-04-21 18:52 45.22464 17.28725 37082 ft 455 kts 186°
2026-04-21 18:52 45.16131 17.28645 37095 ft 455 kts 186°
2026-04-21 18:53 45.09806 17.28566 37091 ft 455 kts 186°
2026-04-21 18:53 45.03479 17.28487 37063 ft 454 kts 187°
2026-04-21 18:54 44.97180 17.28409 37096 ft 454 kts 187°
2026-04-21 18:54 44.90869 17.28330 37099 ft 453 kts 187°
2026-04-21 18:55 44.85631 17.28265 37104 ft 453 kts 187°
2026-04-21 18:55 44.78269 17.28174 37093 ft 452 kts 188°
2026-04-21 18:56 44.71979 17.28095 37095 ft 452 kts 188°
2026-04-21 18:56 44.65680 17.28017 37100 ft 453 kts 188°
2026-04-21 18:57 44.59380 17.27940 37088 ft 452 kts 188°
2026-04-21 18:57 44.53099 17.27864 37094 ft 451 kts 188°
2026-04-21 18:58 44.46827 17.27787 37099 ft 451 kts 188°
2026-04-21 18:58 44.40555 17.27709 37083 ft 451 kts 188°
2026-04-21 18:59 44.34286 17.27631 37089 ft 450 kts 188°
2026-04-21 18:59 44.28018 17.27557 37078 ft 451 kts 188°
2026-04-21 19:00 44.21752 17.27481 37065 ft 450 kts 188°
2026-04-21 19:00 44.15493 17.27404 37069 ft 450 kts 188°
2026-04-21 19:01 44.09244 17.27329 37054 ft 448 kts 188°
2026-04-21 19:01 44.03032 17.27262 37044 ft 444 kts 188°
2026-04-21 19:02 43.96868 17.27192 37048 ft 444 kts 188°
2026-04-21 19:02 43.90676 17.27107 37038 ft 446 kts 188°
2026-04-21 19:03 43.84466 17.27027 37023 ft 446 kts 188°
2026-04-21 19:03 43.78295 17.26954 37029 ft 447 kts 188°
2026-04-21 19:04 43.72071 17.26879 37016 ft 448 kts 188°
2026-04-21 19:04 43.65827 17.26805 36985 ft 449 kts 187°
2026-04-21 19:05 43.59581 17.26731 36997 ft 449 kts 187°
2026-04-21 19:05 43.53332 17.26657 37016 ft 449 kts 187°
2026-04-21 19:06 43.47074 17.26582 36993 ft 450 kts 187°
2026-04-21 19:06 43.40809 17.26508 36989 ft 450 kts 187°
2026-04-21 19:07 43.34541 17.26435 36987 ft 450 kts 187°
2026-04-21 19:07 43.28283 17.26362 36948 ft 449 kts 187°
2026-04-21 19:08 43.22037 17.26289 36976 ft 448 kts 187°
2026-04-21 19:08 43.15811 17.26216 36978 ft 447 kts 187°
2026-04-21 19:09 43.09597 17.26143 36946 ft 446 kts 187°
2026-04-21 19:09 43.03400 17.26071 36967 ft 445 kts 187°
2026-04-21 19:10 42.97234 17.25999 36963 ft 444 kts 187°
2026-04-21 19:10 42.91052 17.25926 36966 ft 444 kts 187°
2026-04-21 19:11 42.84878 17.25854 36967 ft 444 kts 187°
2026-04-21 19:11 42.78744 17.25782 36974 ft 444 kts 187°
2026-04-21 19:12 42.73569 17.25722 36972 ft 444 kts 187°
2026-04-21 19:12 42.66382 17.25638 36845 ft 446 kts 187°
2026-04-21 19:12 42.63287 17.25603 36542 ft 442 kts 187°
2026-04-21 19:13 42.60233 17.25573 36148 ft 436 kts 187°
2026-04-21 19:13 42.57218 17.25542 35793 ft 431 kts 187°
2026-04-21 19:13 42.54233 17.25510 35401 ft 427 kts 188°
2026-04-21 19:13 42.51277 17.25477 34992 ft 423 kts 188°
2026-04-21 19:14 42.48348 17.25443 34618 ft 419 kts 188°
2026-04-21 19:14 42.45449 17.25409 34253 ft 415 kts 188°
2026-04-21 19:14 42.42572 17.25376 33870 ft 412 kts 188°
2026-04-21 19:14 42.39718 17.25342 33443 ft 409 kts 188°
2026-04-21 19:15 42.36886 17.25310 33054 ft 405 kts 188°
2026-04-21 19:15 42.34082 17.25278 32672 ft 401 kts 189°
2026-04-21 19:15 42.31299 17.25246 32270 ft 398 kts 189°
2026-04-21 19:15 42.28547 17.25215 31945 ft 394 kts 189°
2026-04-21 19:16 42.25817 17.25184 31580 ft 391 kts 189°
2026-04-21 19:16 42.23107 17.25152 31227 ft 388 kts 189°
2026-04-21 19:16 42.20413 17.25120 30874 ft 386 kts 189°
2026-04-21 19:16 42.17738 17.25089 30527 ft 383 kts 189°
2026-04-21 19:17 42.12430 17.25027 29800 ft 380 kts 189°
2026-04-21 19:17 42.09798 17.24998 29383 ft 377 kts 189°
2026-04-21 19:17 42.07193 17.24969 29031 ft 373 kts 189°
2026-04-21 19:18 42.04608 17.24939 28667 ft 370 kts 189°
2026-04-21 19:18 42.02039 17.24908 28303 ft 368 kts 189°
2026-04-21 19:18 41.99491 17.24877 27943 ft 368 kts 189°
2026-04-21 19:18 41.96904 17.24843 27590 ft 377 kts 189°
2026-04-21 19:19 41.94241 17.24892 27223 ft 391 kts 182°
2026-04-21 19:19 41.91540 17.25561 26776 ft 400 kts 171°
2026-04-21 19:19 41.88916 17.26892 26313 ft 404 kts 162°
2026-04-21 19:19 41.86353 17.28406 25929 ft 402 kts 161°
2026-04-21 19:20 41.83813 17.29940 25546 ft 399 kts 161°
2026-04-21 19:20 41.81291 17.31461 25167 ft 397 kts 161°
2026-04-21 19:20 41.78777 17.32963 24804 ft 394 kts 161°
2026-04-21 19:20 41.76278 17.34441 24439 ft 392 kts 162°
2026-04-21 19:21 41.73784 17.35905 24056 ft 390 kts 162°
2026-04-21 19:21 41.71334 17.37336 23699 ft 389 kts 162°
2026-04-21 19:21 41.68825 17.38797 23280 ft 387 kts 162°
2026-04-21 19:21 41.66395 17.40209 22875 ft 384 kts 162°
2026-04-21 19:22 41.63953 17.41628 22512 ft 381 kts 162°
2026-04-21 19:22 41.61536 17.43032 22152 ft 377 kts 162°
2026-04-21 19:22 41.59138 17.44422 21797 ft 374 kts 162°
2026-04-21 19:22 41.56763 17.45799 21448 ft 371 kts 162°
2026-04-21 19:23 41.54408 17.47161 21097 ft 367 kts 162°
2026-04-21 19:23 41.52072 17.48513 20755 ft 364 kts 162°
2026-04-21 19:23 41.49755 17.49852 20416 ft 362 kts 162°
2026-04-21 19:23 41.47453 17.51181 20077 ft 359 kts 162°
2026-04-21 19:24 41.45170 17.52498 19741 ft 356 kts 162°
2026-04-21 19:24 41.42901 17.53807 19407 ft 354 kts 162°
2026-04-21 19:24 41.40647 17.55105 19069 ft 352 kts 162°
2026-04-21 19:24 41.38409 17.56393 18741 ft 349 kts 162°
2026-04-21 19:25 41.36184 17.57674 18410 ft 347 kts 162°
2026-04-21 19:25 41.33974 17.58944 18052 ft 345 kts 162°
2026-04-21 19:25 41.31773 17.60208 17682 ft 343 kts 162°
2026-04-21 19:25 41.29589 17.61462 17329 ft 340 kts 162°
2026-04-21 19:26 41.27426 17.62703 17004 ft 337 kts 162°
2026-04-21 19:26 41.25280 17.63934 16675 ft 335 kts 162°
2026-04-21 19:26 41.23150 17.65154 16337 ft 332 kts 161°
2026-04-21 19:26 41.21042 17.66361 16025 ft 329 kts 161°
2026-04-21 19:27 41.18944 17.67539 15711 ft 326 kts 162°
2026-04-21 19:27 41.16848 17.68650 15395 ft 323 kts 163°
2026-04-21 19:27 41.14761 17.69737 15073 ft 321 kts 163°
2026-04-21 19:27 41.12689 17.70813 14759 ft 319 kts 163°
2026-04-21 19:28 41.10626 17.71887 14442 ft 317 kts 163°
2026-04-21 19:28 41.08576 17.72957 14125 ft 316 kts 163°
2026-04-21 19:28 41.06537 17.74023 13807 ft 314 kts 162°
2026-04-21 19:28 41.04508 17.75085 13466 ft 313 kts 162°
2026-04-21 19:29 41.02487 17.76143 13125 ft 311 kts 162°
2026-04-21 19:29 41.00483 17.77191 12791 ft 309 kts 162°
2026-04-21 19:29 40.98502 17.78228 12477 ft 307 kts 162°
2026-04-21 19:29 40.96524 17.79262 12160 ft 304 kts 163°
2026-04-21 19:30 40.94563 17.80286 11852 ft 302 kts 163°
2026-04-21 19:30 40.92612 17.81303 11546 ft 300 kts 163°
2026-04-21 19:30 40.90678 17.82311 11247 ft 298 kts 163°
2026-04-21 19:30 40.88754 17.83313 10945 ft 296 kts 163°
2026-04-21 19:31 40.86869 17.84294 10641 ft 294 kts 163°
2026-04-21 19:31 40.84968 17.85283 10335 ft 293 kts 163°
2026-04-21 19:31 40.83079 17.86265 10081 ft 290 kts 163°
2026-04-21 19:31 40.81230 17.87227 9925 ft 283 kts 163°
2026-04-21 19:32 40.79403 17.88176 9619 ft 282 kts 163°
2026-04-21 19:32 40.77584 17.89119 9284 ft 280 kts 163°
2026-04-21 19:32 40.75777 17.90056 9001 ft 278 kts 163°
2026-04-21 19:32 40.73983 17.90986 8709 ft 276 kts 163°
2026-04-21 19:33 40.72778 17.91610 8518 ft 275 kts 162°
2026-04-21 19:33 40.70426 17.92828 8145 ft 273 kts 162°
2026-04-21 19:33 40.68662 17.93740 7870 ft 272 kts 162°
2026-04-21 19:33 40.66912 17.94658 7588 ft 271 kts 159°
2026-04-21 19:34 40.65396 17.96141 7297 ft 276 kts 133°
2026-04-21 19:34 40.64269 17.98186 7025 ft 276 kts 125°
2026-04-21 19:34 40.63576 17.99586 6837 ft 275 kts 125°
2026-04-21 19:34 40.62574 18.01635 6561 ft 275 kts 125°
2026-04-21 19:35 40.61539 18.03742 6281 ft 274 kts 125°
2026-04-21 19:35 40.59535 18.07782 5730 ft 271 kts 125°
2026-04-21 19:35 40.58519 18.09817 5570 ft 264 kts 126°
2026-04-21 19:36 40.57525 18.11802 5460 ft 256 kts 126°
2026-04-21 19:36 40.56557 18.13728 5345 ft 248 kts 126°
2026-04-21 19:36 40.55617 18.15596 5238 ft 241 kts 126°
2026-04-21 19:36 40.54706 18.17405 5129 ft 234 kts 126°
2026-04-21 19:37 40.53771 18.19124 4925 ft 230 kts 138°
2026-04-21 19:37 40.52393 18.20027 4680 ft 221 kts 175°
2026-04-21 19:37 40.50908 18.19721 4451 ft 216 kts 207°
2026-04-21 19:37 40.49779 18.18474 4230 ft 213 kts 237°
2026-04-21 19:38 40.49318 18.16678 4018 ft 207 kts 267°
2026-04-21 19:38 40.49605 18.14874 3865 ft 199 kts 294°
2026-04-21 19:38 40.50402 18.13423 3696 ft 196 kts 313°
2026-04-21 19:38 40.51379 18.12215 3507 ft 190 kts 316°
2026-04-21 19:39 40.52347 18.11065 3282 ft 186 kts 316°
2026-04-21 19:39 40.53319 18.09901 2891 ft 192 kts 316°
2026-04-21 19:39 40.54337 18.08746 2572 ft 192 kts 318°
2026-04-21 19:39 40.55325 18.07593 2336 ft 188 kts 317°
2026-04-21 19:40 40.56270 18.06444 2126 ft 182 kts 317°
2026-04-21 19:40 40.57170 18.05339 1925 ft 177 kts 317°
2026-04-21 19:40 40.58055 18.04251 1730 ft 171 kts 317°
2026-04-21 19:40 40.58913 18.03197 1544 ft 167 kts 318°
2026-04-21 19:41 40.59756 18.02162 1360 ft 165 kts 319°
2026-04-21 19:41 40.60588 18.01140 1176 ft 161 kts 319°
2026-04-21 19:41 40.61382 18.00164 1032 ft 147 kts 320°
2026-04-21 19:41 40.62115 17.99266 854 ft 143 kts 319°
2026-04-21 19:42 40.62851 17.98363 705 ft 146 kts 318°
2026-04-21 19:42 40.63595 17.97453 548 ft 147 kts 317°
2026-04-21 19:42 40.64341 17.96533 385 ft 147 kts 316°
2026-04-21 19:42 40.65097 17.95612 225 ft 150 kts 317°
2026-04-21 19:43 40.65855 17.94673 62 ft 149 kts 316°
2026-04-21 19:43 40.66502 17.93880 51 ft 97 kts 317°
2026-04-21 19:43 40.66713 17.93627 54 ft 9 kts 334°
2026-04-21 19:43 40.66766 17.93659 52 ft 9 kts 49°
2026-04-21 19:44 40.66808 17.93723 55 ft 9 kts 49°
2026-04-21 19:44 40.66825 17.93783 56 ft 7 kts 113°
2026-04-21 19:44 40.66784 17.93828 56 ft 9 kts 141°
2026-04-21 19:44 40.66726 17.93897 56 ft 14 kts 137°
2026-04-21 19:45 40.66641 17.94001 56 ft 19 kts 137°
2026-04-21 19:45 40.66530 17.94136 52 ft 24 kts 137°
2026-04-21 19:45 40.66399 17.94294 56 ft 26 kts 137°
2026-04-21 19:45 40.66271 17.94449 52 ft 24 kts 137°
2026-04-21 19:46 40.66152 17.94593 56 ft 23 kts 137°
2026-04-21 19:46 40.66062 17.94702 56 ft 9 kts 139°
2026-04-21 19:46 40.66013 17.94675 55 ft 9 kts 231°
2026-04-21 19:46 40.65963 17.94593 52 ft 14 kts 231°
2026-04-21 19:47 40.65896 17.94480 51 ft 16 kts 232°
2026-04-21 19:47 40.65831 17.94368 53 ft 15 kts 233°
2026-04-21 19:47 40.65769 17.94260 52 ft 14 kts 233°
2026-04-21 19:47 40.65709 17.94157 55 ft 14 kts 232°
2026-04-21 19:48 40.65660 17.94072 52 ft 7 kts 234°
2026-04-21 19:48 40.65679 17.94024 52 ft 7 kts 333°
2026-04-21 19:48 40.65723 17.93986 55 ft 5 kts 323°
2026-04-21 19:48 40.65731 17.93984 55 ft 1 kts
2026-04-21 19:49 40.65737 17.93986 55 ft 0 kts